When you browse on this site, cookies collect data to enhance your experience and personalize the content and advertising you see.
Visit our Privacy Policy to learn more. By continuing to use the site, you agree to this use of cookies and data.
  • En España
  • Lista de países
  • Para 7 días
  • Temperatura del agua
  • El tiempo en el mapa
  • Informadores
  • user-avatar
    Iniciar sesión

    Tiempo cada hora Shymkent

    Hoy, 20 Febrero, Jueves

    Tiempo Temperatura Precipitaciones Viento Presión Humedad
    00:00 -3°C° 0 mm 2 mps 724 mmHg 56%
    01:00 -1°C° 0 mm 1 mps 723 mmHg 54%
    02:00 0°C° 0 mm 1 mps 722 mmHg 51%
    03:00 0°C° 0 mm 1 mps 722 mmHg 50%
    04:00 0°C° 0 mm 1 mps 721 mmHg 48%
    05:00 0°C° 0 mm 1 mps 721 mmHg 45%
    06:00 0°C° 0 mm 1 mps 721 mmHg 43%
    07:00 0°C° 0 mm 1 mps 721 mmHg 41%
    08:00 0°C° 0 mm 1 mps 721 mmHg 39%
    09:00 +2°C° 0 mm 1 mps 721 mmHg 37%
    10:00 +4°C° 0 mm 1 mps 720 mmHg 36%
    11:00 +6°C° 0 mm 1 mps 720 mmHg 36%
    12:00 +7°C° 0 mm 1 mps 719 mmHg 36%
    13:00 +8°C° 0 mm 1 mps 719 mmHg 37%
    14:00 +8°C° 0 mm 0 mps 718 mmHg 37%
    15:00 +8°C° 0 mm 1 mps 718 mmHg 39%
    16:00 +8°C° 0 mm 1 mps 718 mmHg 41%
    17:00 +7°C° 0 mm 1 mps 718 mmHg 42%
    18:00 +6°C° 0 mm 1 mps 717 mmHg 44%
    19:00 +5°C° 0 mm 1 mps 717 mmHg 46%
    20:00 +4°C° 0 mm 1 mps 716 mmHg 48%
    21:00 +4°C° 0 mm 1 mps 716 mmHg 46%
    22:00 +4°C° 0 mm 1 mps 716 mmHg 45%
    23:00 +3°C° 0 mm 1 mps 715 mmHg 44%

    Mañana, 21 Febrero, Viernes

    Tiempo Temperatura Precipitaciones Viento Presión Humedad
    00:00 +4°C° 0 mm 1 mps 715 mmHg 42%
    01:00 +4°C° 0 mm 1 mps 714 mmHg 40%
    02:00 +5°C° 0 mm 1 mps 714 mmHg 39%
    03:00 +5°C° 0 mm 1 mps 713 mmHg 38%
    04:00 +5°C° 0 mm 1 mps 713 mmHg 37%
    05:00 +5°C° 0 mm 1 mps 713 mmHg 36%
    06:00 +5°C° 0 mm 1 mps 713 mmHg 36%
    07:00 +5°C° 0 mm 1 mps 713 mmHg 35%
    08:00 +6°C° 0 mm 1 mps 713 mmHg 34%
    09:00 +8°C° 0 mm 1 mps 714 mmHg 36%
    10:00 +10°C° 0 mm 1 mps 714 mmHg 37%
    11:00 +12°C° 0 mm 1 mps 714 mmHg 38%
    18:00 +9°C° 0 mm 2 mps 714 mmHg 46%
    19:00 +8°C° 0 mm 2 mps 715 mmHg 48%
    20:00 +7°C° 0 mm 3 mps 715 mmHg 51%
    21:00 +8°C° 0 mm 3 mps 715 mmHg 49%
    22:00 +7°C° 0 mm 4 mps 715 mmHg 46%
    23:00 +7°C° 0 mm 4 mps 715 mmHg 44%

    Pasado mañana, 22 Febrero, Sábado

    Tiempo Temperatura Precipitaciones Viento Presión Humedad
    00:00 +8°C° 0 mm 4 mps 716 mmHg 46%
    01:00 +8°C° 0 mm 4 mps 716 mmHg 49%
    02:00 +8°C° 0 mm 4 mps 716 mmHg 52%
    03:00 +8°C° 0 mm 3 mps 716 mmHg 61%
    04:00 +7°C° 0 mm 3 mps 717 mmHg 71%
    05:00 +5°C° 0 mm 3 mps 717 mmHg 81%
    06:00 +5°C° 2.2 mm 3 mps 717 mmHg 85%
    07:00 +5°C° 2.2 mm 4 mps 718 mmHg 89%
    08:00 +5°C° 2.2 mm 4 mps 719 mmHg 93%
    09:00 +5°C° 0.9 mm 5 mps 719 mmHg 90%
    10:00 +6°C° 0.9 mm 5 mps 719 mmHg 86%
    11:00 +5°C° 0.9 mm 6 mps 719 mmHg 83%
    12:00 +5°C° 0 mm 6 mps 720 mmHg 82%
    13:00 +5°C° 0 mm 6 mps 720 mmHg 80%
    14:00 +5°C° 0 mm 7 mps 720 mmHg 79%
    15:00 +5°C° 0 mm 6 mps 720 mmHg 77%
    16:00 +5°C° 0 mm 5 mps 721 mmHg 75%
    17:00 +5°C° 0 mm 4 mps 721 mmHg 72%
    18:00 +4°C° 0 mm 3 mps 721 mmHg 75%
    19:00 +4°C° 0 mm 2 mps 722 mmHg 77%
    20:00 +4°C° 0 mm 1 mps 722 mmHg 79%
    21:00 +4°C° 0 mm 1 mps 722 mmHg 80%
    22:00 +4°C° 0 mm 1 mps 722 mmHg 81%
    23:00 +3°C° 0 mm 1 mps 722 mmHg 82%

    23 Febrero, Domingo

    Tiempo Temperatura Precipitaciones Viento Presión Humedad
    00:00 +3°C° 0 mm 1 mps 722 mmHg 81%
    01:00 +3°C° 0 mm 1 mps 721 mmHg 80%
    02:00 +3°C° 0 mm 2 mps 721 mmHg 80%
    03:00 +3°C° 0 mm 2 mps 721 mmHg 80%
    04:00 +3°C° 0 mm 2 mps 721 mmHg 80%
    05:00 +3°C° 0 mm 2 mps 720 mmHg 81%
    06:00 +3°C° 0 mm 2 mps 720 mmHg 80%
    07:00 +3°C° 0 mm 2 mps 720 mmHg 79%
    08:00 +4°C° 0 mm 2 mps 720 mmHg 79%
    09:00 +6°C° 0 mm 2 mps 720 mmHg 74%
    10:00 +7°C° 0 mm 2 mps 720 mmHg 70%
    11:00 +9°C° 0 mm 2 mps 720 mmHg 65%
    12:00 +10°C° 0 mm 2 mps 719 mmHg 63%
    13:00 +12°C° 0 mm 2 mps 719 mmHg 60%
    14:00 +13°C° 0 mm 2 mps 718 mmHg 58%
    15:00 +13°C° 0 mm 2 mps 718 mmHg 60%
    16:00 +12°C° 0 mm 2 mps 717 mmHg 63%
    17:00 +12°C° 0 mm 2 mps 717 mmHg 66%
    18:00 +9°C° 0 mm 2 mps 717 mmHg 67%
    19:00 +9°C° 0 mm 1 mps 717 mmHg 68%
    20:00 +8°C° 0 mm 1 mps 717 mmHg 70%
    21:00 +8°C° 0.1 mm 1 mps 717 mmHg 72%
    22:00 +8°C° 0.1 mm 1 mps 716 mmHg 75%
    23:00 +8°C° 0.1 mm 1 mps 716 mmHg 77%

    24 Febrero, Lunes

    Tiempo Temperatura Precipitaciones Viento Presión Humedad
    00:00 +7°C° 1 mm 2 mps 716 mmHg 80%
    01:00 +7°C° 1 mm 3 mps 716 mmHg 83%
    02:00 +7°C° 1 mm 3 mps 716 mmHg 87%
    03:00 +7°C° 0.8 mm 3 mps 716 mmHg 88%
    04:00 +7°C° 0.8 mm 2 mps 715 mmHg 89%
    05:00 +8°C° 0.8 mm 1 mps 715 mmHg 90%
    06:00 +8°C° 0.6 mm 1 mps 715 mmHg 90%
    07:00 +7°C° 0.6 mm 2 mps 716 mmHg 90%
    08:00 +7°C° 0.6 mm 2 mps 716 mmHg 91%
    09:00 +9°C° 0.1 mm 2 mps 716 mmHg 85%
    10:00 +10°C° 0.1 mm 2 mps 716 mmHg 80%
    11:00 +12°C° 0.1 mm 2 mps 716 mmHg 74%
    12:00 +13°C° 0.1 mm 2 mps 716 mmHg 70%
    13:00 +14°C° 0.1 mm 2 mps 715 mmHg 66%
    14:00 +15°C° 0.1 mm 2 mps 715 mmHg 62%
    15:00 +15°C° 0.3 mm 2 mps 715 mmHg 65%
    16:00 +14°C° 0.3 mm 2 mps 715 mmHg 69%
    17:00 +14°C° 0.3 mm 2 mps 715 mmHg 73%
    18:00 +13°C° 0.2 mm 2 mps 715 mmHg 74%
    19:00 +12°C° 0.2 mm 2 mps 715 mmHg 75%
    20:00 +10°C° 0.2 mm 2 mps 715 mmHg 76%
    21:00 +10°C° 0 mm 2 mps 715 mmHg 74%
    22:00 +10°C° 0 mm 2 mps 715 mmHg 73%
    23:00 +10°C° 0 mm 2 mps 715 mmHg 71%

    25 Febrero, Martes

    Tiempo Temperatura Precipitaciones Viento Presión Humedad
    00:00 +10°C° 0.1 mm 2 mps 715 mmHg 73%
    01:00 +9°C° 0.1 mm 2 mps 715 mmHg 75%
    02:00 +9°C° 0.1 mm 2 mps 714 mmHg 77%
    03:00 +8°C° 0.2 mm 2 mps 714 mmHg 77%
    04:00 +9°C° 0.2 mm 1 mps 714 mmHg 78%
    05:00 +9°C° 0.2 mm 1 mps 714 mmHg 78%
    06:00 +8°C° 0.4 mm 2 mps 714 mmHg 77%
    07:00 +8°C° 0.4 mm 2 mps 714 mmHg 76%
    08:00 +9°C° 0.4 mm 2 mps 714 mmHg 75%
    09:00 +12°C° 0.1 mm 2 mps 714 mmHg 69%
    10:00 +14°C° 0.1 mm 2 mps 714 mmHg 62%
    11:00 +16°C° 0.1 mm 3 mps 714 mmHg 56%
    12:00 +17°C° 0 mm 3 mps 714 mmHg 49%
    13:00 +19°C° 0 mm 3 mps 714 mmHg 43%
    14:00 +21°C° 0 mm 2 mps 713 mmHg 37%
    15:00 +19°C° 0 mm 3 mps 713 mmHg 42%
    16:00 +18°C° 0 mm 3 mps 713 mmHg 47%
    17:00 +17°C° 0 mm 3 mps 713 mmHg 53%
    18:00 +16°C° 0 mm 3 mps 712 mmHg 57%
    19:00 +13°C° 0 mm 3 mps 712 mmHg 60%
    20:00 +12°C° 0 mm 3 mps 712 mmHg 64%
    21:00 +12°C° 0 mm 4 mps 712 mmHg 62%
    22:00 +12°C° 0 mm 4 mps 712 mmHg 59%
    23:00 +13°C° 0 mm 4 mps 712 mmHg 57%
    Mostrar más